CW9676 Weather Reports


time (UTC)temp
F
wind
direction
speed
knots
gust
knots
rain 1hr
in
rain 24hr
in
rain mn
in
humidity
%
barometer
mb
20260506111832 45 233 7.8 16.5 0.00 0.03 0.00 66 1009.6
20260506110832 46 263 7.8 13.9 0.00 0.03 0.00 66 1009.5
20260506104648 46 218 7.8 14.8 0.00 0.03 0.00 65 1009.5
20260506103633 46 273 8.7 14.8 0.00 0.03 0.00 65 1009.4
20260506102611 46 222 8.7 13.9 0.00 0.03 0.00 65 1009.4
20260506101624 46 225 7.8 16.5 0.00 0.03 0.00 65 1009.2
20260506100649 46 216 8.7 16.5 0.00 0.03 0.00 64 1009.2
20260506095646 46 238 9.6 15.6 0.00 0.03 0.00 64 1009.2
20260506094613 47 186 7.8 13.9 0.00 0.03 0.00 64 1009.2
20260506093625 47 221 7.8 16.5 0.00 0.03 0.00 64 1009.1
20260506092641 47 215 8.7 16.5 0.00 0.03 0.00 63 1009.2
20260506091652 47 243 8.7 14.8 0.00 0.03 0.00 63 1009.1
20260506090640 47 242 7.8 13.9 0.00 0.03 0.00 63 1009.1
20260506085607 47 246 7.0 15.6 0.00 0.03 0.00 62 1009.0
20260506084604 48 231 7.0 15.6 0.00 0.03 0.00 61 1009.0
20260506083559 48 182 5.2 11.3 0.00 0.03 0.00 61 1009.1
20260506082530 48 237 6.1 13.0 0.00 0.03 0.00 62 1009.1
20260506081536 47 250 7.0 13.0 0.00 0.03 0.00 63 1009.1
20260506080534 47 4 5.2 10.4 0.00 0.03 0.00 63 1009.3
20260506073424 48 220 6.1 11.3 0.00 0.03 0.00 61 1009.4
20260506071218 48 215 6.1 12.2 0.00 0.03 0.00 60 1009.2
20260506070215 48 226 6.1 12.2 0.00 0.03 0.00 60 1009.2
20260506061018 50 246 7.0 13.0 0.00 0.03 0.00 57 1008.6
20260506050924 51 234 4.3 12.2 0.00 0.03 0.03 53 1008.3
20260506044814 52 222 7.0 13.9 0.00 0.03 0.03 52 1008.3
20260506043832 53 230 7.8 13.0 0.00 0.03 0.03 52 1008.1
20260506041651 53 220 6.1 12.2 0.00 0.03 0.03 53 1008.0
20260506040636 54 233 6.1 12.2 0.00 0.03 0.03 52 1007.8
20260506035614 54 173 7.0 15.6 0.00 0.03 0.03 51 1007.5
20260506033452 54 212 7.8 13.9 0.00 0.03 0.03 50 1007.1
20260506032436 55 184 7.0 21.7 0.00 0.03 0.03 49 1007.0
20260506030257 56 184 8.7 20.0 0.00 0.03 0.03 47 1006.6
20260506025254 56 4 7.8 16.5 0.00 0.03 0.03 46 1006.2
20260506024242 56 202 8.7 16.5 0.00 0.03 0.03 45 1006.1
20260506023225 56 218 7.8 13.9 0.00 0.03 0.03 44 1006.0
20260506022206 57 186 9.6 18.2 0.00 0.03 0.03 44 1005.8
20260506021223 58 212 9.6 18.2 0.00 0.03 0.03 42 1005.6
20260506020218 58 168 10.4 16.5 0.00 0.03 0.03 40 1005.5
20260506015234 59 212 9.6 17.4 0.00 0.03 0.03 40 1005.2
20260506014236 59 4 9.6 19.1 0.00 0.03 0.03 38 1005.2
20260506013235 60 177 9.6 19.1 0.00 0.03 0.03 38 1005.1
20260506012224 61 4 10.4 18.2 0.00 0.03 0.03 37 1005.0
20260506011209 61 199 9.6 20.0 0.00 0.03 0.03 35 1004.8
20260506010145 60 186 10.4 20.0 0.00 0.03 0.03 35 1004.7
20260506005143 60 177 10.4 20.9 0.00 0.03 0.03 35 1004.7
20260506004147 61 177 12.2 21.7 0.00 0.03 0.03 34 1004.7
20260506001957 65 201 14.8 28.7 0.00 0.03 0.03 30 1004.5
20260506000946 65 179 13.9 23.5 0.00 0.03 0.03 31 1004.5
20260506000000 65 214 13.9 25.2 0.00 0.03 0.03 31 1004.3
20260505235003 64 185 13.0 25.2 0.00 0.03 0.03 31 1004.4
20260505233939 64 177 11.3 19.1 0.00 0.03 0.03 35 1004.4
20260505230728 64 194 11.3 20.9 0.00 0.03 0.03 37 1004.4
20260505225656 62 151 12.2 20.0 0.00 0.03 0.03 43 1004.5
20260505224628 62 163 10.4 20.0 0.00 0.03 0.03 44 1004.6
20260505223633 61 142 10.4 18.2 0.00 0.03 0.03 43 1004.6
20260505222642 62 179 11.3 23.5 0.00 0.03 0.03 44 1004.7
20260505220540 64 152 7.0 14.8 0.00 0.03 0.03 48 1004.8
20260505215600 61 142 8.7 14.8 0.00 0.03 0.03 50 1005.0
20260505213455 61 148 7.8 13.0 0.00 0.03 0.03 57 1005.4
20260505212509 59 117 6.1 13.0 0.00 0.03 0.03 59 1005.6
20260505211523 58 136 7.0 13.0 0.00 0.03 0.03 64 1005.7
20260505210456 57 148 4.3 12.2 0.00 0.03 0.03 68 1005.7
20260505205505 56 139 7.8 12.2 0.00 0.03 0.03 72 1005.9
20260505204504 59 172 7.0 14.8 0.00 0.03 0.03 59 1005.9
20260505203437 60 215 9.6 14.8 0.00 0.03 0.03 53 1005.7
20260505202445 61 148 7.8 20.9 0.00 0.03 0.03 50 1006.0
20260505201427 61 178 10.4 20.9 0.00 0.03 0.03 50 1005.9
20260505200355 62 213 12.2 19.1 0.00 0.03 0.03 52 1005.9
20260505194149 62 221 8.7 14.8 0.00 0.03 0.03 56 1006.1
20260505193131 58 164 9.6 16.5 0.00 0.03 0.03 59 1006.2
20260505192139 60 223 8.7 19.1 0.00 0.03 0.03 58 1006.3
20260505191107 57 193 10.4 19.1 0.00 0.03 0.03 64 1006.4
20260505190126 56 157 10.4 20.9 0.00 0.03 0.03 65 1006.4
20260505185131 57 161 10.4 20.9 0.00 0.03 0.03 65 1006.6
20260505184153 56 154 9.6 17.4 0.00 0.03 0.03 71 1006.8
20260505183138 56 155 8.7 18.2 0.00 0.03 0.03 70 1006.9
20260505182106 55 219 7.8 18.2 0.00 0.03 0.03 70 1006.8
20260505181108 56 4 7.0 13.0 0.00 0.03 0.03 69 1006.8
20260505180046 56 109 8.7 13.9 0.00 0.03 0.03 72 1007.0
20260505175016 55 177 8.7 17.4 0.00 0.03 0.03 73 1006.9
20260505174017 55 200 8.7 17.4 0.00 0.03 0.03 71 1006.8
20260505173008 55 186 8.7 13.9 0.00 0.03 0.03 75 1006.8
20260505171935 54 157 7.8 13.9 0.00 0.03 0.03 74 1006.6
20260505170937 54 4 7.8 13.0 0.00 0.03 0.03 78 1006.8
20260505165919 54 184 4.3 10.4 0.00 0.03 0.03 80 1006.6
20260505164908 52 184 5.2 10.4 0.00 0.03 0.03 84 1006.4
20260505163906 51 215 5.2 9.6 0.00 0.03 0.03 86 1006.6
20260505162924 50 220 4.3 8.7 0.00 0.03 0.03 88 1006.3
20260505161944 49 194 5.2 9.6 0.00 0.03 0.03 88 1006.3
20260505160929 49 156 5.2 9.6 0.00 0.03 0.03 90 1006.1
20260505152747 48 195 6.1 10.4 0.00 0.03 0.03 91 1006.1
20260505151804 47 225 4.3 10.4 0.00 0.03 0.03 90 1005.9
20260505150750 46 199 4.3 9.6 0.00 0.02 0.02 89 1006.0
20260505140507 47 179 1.7 4.3 0.00 0.02 0.02 85 1005.4
20260505130249 44 244 3.5 7.0 0.00 0.02 0.02 88 1005.1
20260505124149 44 226 7.0 12.2 0.00 0.02 0.02 89 1005.0
20260505123121 44 142 6.1 17.4 0.00 0.02 0.02 89 1005.6
20260505122116 45 165 8.7 17.4 0.00 0.01 0.01 88 1006.1
20260505121042 45 194 9.6 19.1 0.00 0.01 0.01 88 1006.1
20260505120048 45 215 11.3 26.9 0.00 0.00 0.00 86 1006.0
20260505115049 46 163 13.0 26.9 0.00 0.00 0.00 83 1005.9
20260505112932 49 230 13.0 24.3 0.00 0.00 0.00 75 1005.6
20260505111953 50 206 12.2 24.3 0.00 0.00 0.00 72 1005.6